Time,TemperatureF,DewpointF,PressureIn,WindDirection,WindDirectionDegrees,WindSpeedMPH,WindSpeedGustMPH,Humidity,HourlyPrecipIn,Conditions,Clouds,dailyrainin,SoftwareType,DateUTC
2013-01-16 00:09:00,37.5,36.0,30.12,NNE,25,0.0,4.0,94,0.07,,,0.02,weatherlink.com 1.10,2013-01-16 05:09:00,
2013-01-16 00:24:00,37.3,36.0,30.13,NNE,15,0.0,3.0,94,0.08,,,0.04,weatherlink.com 1.10,2013-01-16 05:24:00,
2013-01-16 00:39:00,37.2,36.0,30.13,ENE,60,1.0,4.0,94,0.09,,,0.06,weatherlink.com 1.10,2013-01-16 05:39:00,
2013-01-16 00:54:00,37.1,36.0,30.10,NNE,33,2.0,5.0,94,0.08,,,0.08,weatherlink.com 1.10,2013-01-16 05:54:00,
2013-01-16 01:09:00,37.2,36.0,30.10,NNW,333,2.0,4.0,95,0.09,,,0.11,weatherlink.com 1.10,2013-01-16 06:09:00,
2013-01-16 01:24:00,37.2,36.0,30.09,NE,41,3.0,6.0,95,0.09,,,0.13,weatherlink.com 1.10,2013-01-16 06:24:00,
2013-01-16 01:39:00,37.1,36.0,30.09,NNE,19,2.0,5.0,95,0.08,,,0.14,weatherlink.com 1.10,2013-01-16 06:39:00,
2013-01-16 01:54:00,37.1,36.0,30.09,NNE,28,0.0,4.0,95,0.08,,,0.16,weatherlink.com 1.10,2013-01-16 06:54:00,
2013-01-16 02:09:00,36.9,36.0,30.10,NE,40,0.0,4.0,95,0.07,,,0.19,weatherlink.com 1.10,2013-01-16 07:09:00,
2013-01-16 02:24:00,36.7,35.0,30.09,NE,34,1.0,2.0,95,0.08,,,0.21,weatherlink.com 1.10,2013-01-16 07:24:00,
2013-01-16 02:39:00,36.6,35.0,30.11,ENE,63,0.0,2.0,95,0.10,,,0.24,weatherlink.com 1.10,2013-01-16 07:39:00,
2013-01-16 02:54:00,36.3,35.0,30.12,NE,37,0.0,3.0,95,0.09,,,0.26,weatherlink.com 1.10,2013-01-16 07:54:00,
2013-01-16 03:09:00,36.1,35.0,30.11,ENE,60,1.0,4.0,95,0.09,,,0.28,weatherlink.com 1.10,2013-01-16 08:09:00,
2013-01-16 03:24:00,36.0,35.0,30.12,NW,321,0.0,6.0,95,0.09,,,0.30,weatherlink.com 1.10,2013-01-16 08:24:00,
2013-01-16 03:39:00,35.9,35.0,30.10,ENE,67,1.0,2.0,95,0.09,,,0.33,weatherlink.com 1.10,2013-01-16 08:39:00,
2013-01-16 03:54:00,35.9,35.0,30.08,ENE,62,0.0,2.0,96,0.11,,,0.37,weatherlink.com 1.10,2013-01-16 08:54:00,
2013-01-16 04:09:00,35.9,35.0,30.07,West,275,2.0,3.0,96,0.11,,,0.39,weatherlink.com 1.10,2013-01-16 09:09:00,
2013-01-16 04:24:00,36.0,35.0,30.07,ENE,71,0.0,2.0,96,0.08,,,0.39,weatherlink.com 1.10,2013-01-16 09:24:00,
2013-01-16 04:39:00,36.2,35.0,30.05,ENE,60,0.0,2.0,96,0.06,,,0.39,weatherlink.com 1.10,2013-01-16 09:39:00,
2013-01-16 04:54:00,36.7,36.0,30.05,NE,41,0.0,2.0,96,0.02,,,0.39,weatherlink.com 1.10,2013-01-16 09:54:00,
2013-01-16 05:09:00,36.9,36.0,30.04,NNE,25,0.0,2.0,96,0.00,,,0.39,weatherlink.com 1.10,2013-01-16 10:09:00,
2013-01-16 05:24:00,37.1,36.0,30.02,NE,45,1.0,2.0,95,0.00,,,0.39,weatherlink.com 1.10,2013-01-16 10:24:00,
2013-01-16 05:39:00,37.2,36.0,30.03,West,263,0.0,1.0,95,0.00,,,0.39,weatherlink.com 1.10,2013-01-16 10:39:00,
2013-01-16 05:54:00,37.1,36.0,30.03,NNE,23,0.0,1.0,95,0.00,,,0.39,weatherlink.com 1.10,2013-01-16 10:54:00,
2013-01-16 06:09:00,37.2,36.0,30.05,SSW,203,0.0,1.0,95,0.00,,,0.39,weatherlink.com 1.10,2013-01-16 11:09:00,
2013-01-16 06:24:00,37.1,36.0,30.04,West,281,0.0,2.0,95,0.00,,,0.39,weatherlink.com 1.10,2013-01-16 11:24:00,
2013-01-16 06:40:00,37.2,36.0,30.03,NE,49,0.0,1.0,94,0.00,,,0.39,weatherlink.com 1.10,2013-01-16 11:40:00,
2013-01-16 06:55:00,37.2,36.0,30.04,East,93,0.0,2.0,94,0.00,,,0.39,weatherlink.com 1.10,2013-01-16 11:55:00,
2013-01-16 07:10:00,37.2,36.0,30.03,WNW,295,0.0,2.0,94,0.00,,,0.39,weatherlink.com 1.10,2013-01-16 12:10:00,
2013-01-16 07:25:00,37.3,36.0,30.03,ENE,61,0.0,2.0,94,0.01,,,0.40,weatherlink.com 1.10,2013-01-16 12:25:00,
2013-01-16 07:40:00,37.2,36.0,30.02,WNW,288,0.0,1.0,94,0.01,,,0.40,weatherlink.com 1.10,2013-01-16 12:40:00,
2013-01-16 07:55:00,37.2,36.0,30.03,West,281,0.0,1.0,94,0.01,,,0.40,weatherlink.com 1.10,2013-01-16 12:55:00,
2013-01-16 08:25:00,36.9,36.0,30.02,WNW,290,0.0,2.0,95,0.00,,,0.40,weatherlink.com 1.10,2013-01-16 13:25:00,
2013-01-16 08:40:00,37.0,36.0,30.02,West,273,0.0,1.0,95,0.00,,,0.40,weatherlink.com 1.10,2013-01-16 13:40:00,
2013-01-16 08:55:00,37.0,36.0,30.02,WNW,290,0.0,1.0,95,0.01,,,0.41,weatherlink.com 1.10,2013-01-16 13:55:00,
2013-01-16 09:13:00,37.1,36.0,30.04,West,263,0.0,1.0,95,0.02,,,0.42,weatherlink.com 1.10,2013-01-16 14:13:00,
2013-01-16 09:25:00,37.1,36.0,30.03,WNW,283,1.0,1.0,95,0.03,,,0.43,weatherlink.com 1.10,2013-01-16 14:25:00,
2013-01-16 09:40:00,37.2,36.0,30.03,West,276,0.0,1.0,96,0.03,,,0.43,weatherlink.com 1.10,2013-01-16 14:40:00,
2013-01-16 09:55:00,37.5,37.0,30.03,West,277,0.0,1.0,96,0.03,,,0.44,weatherlink.com 1.10,2013-01-16 14:55:00,
2013-01-16 10:10:00,37.5,37.0,30.03,SW,229,1.0,1.0,96,0.02,,,0.44,weatherlink.com 1.10,2013-01-16 15:10:00,
2013-01-16 10:25:00,37.7,37.0,30.02,West,262,1.0,1.0,96,0.01,,,0.44,weatherlink.com 1.10,2013-01-16 15:25:00,
2013-01-16 10:40:00,38.0,37.0,30.02,WSW,239,0.0,2.0,96,0.02,,,0.45,weatherlink.com 1.10,2013-01-16 15:40:00,
2013-01-16 10:55:00,37.8,37.0,30.01,SW,224,3.0,3.0,95,0.01,,,0.45,weatherlink.com 1.10,2013-01-16 15:55:00,
2013-01-16 11:10:00,37.8,37.0,30.00,West,281,0.0,3.0,95,0.01,,,0.45,weatherlink.com 1.10,2013-01-16 16:10:00,
2013-01-16 11:25:00,38.2,37.0,29.98,NNE,30,0.0,1.0,95,0.01,,,0.45,weatherlink.com 1.10,2013-01-16 16:25:00,
2013-01-16 11:40:00,38.7,37.0,29.96,West,278,0.0,1.0,95,0.00,,,0.45,weatherlink.com 1.10,2013-01-16 16:40:00,
2013-01-16 11:55:00,38.8,38.0,29.95,SW,219,0.0,2.0,95,0.00,,,0.45,weatherlink.com 1.10,2013-01-16 16:55:00,
2013-01-16 12:10:00,39.2,38.0,29.93,ESE,105,1.0,3.0,95,0.00,,,0.45,weatherlink.com 1.10,2013-01-16 17:10:00,
2013-01-16 12:25:00,39.5,38.0,29.90,SSW,208,0.0,4.0,95,0.00,,,0.45,weatherlink.com 1.10,2013-01-16 17:25:00,
2013-01-16 12:40:00,39.7,38.0,29.89,SSE,153,2.0,4.0,95,0.00,,,0.45,weatherlink.com 1.10,2013-01-16 17:40:00,
2013-01-16 12:55:00,40.0,39.0,29.87,East,93,3.0,6.0,95,0.00,,,0.45,weatherlink.com 1.10,2013-01-16 17:55:00,
2013-01-16 13:10:00,40.6,39.0,29.84,SSW,208,1.0,6.0,95,0.00,,,0.45,weatherlink.com 1.10,2013-01-16 18:10:00,
2013-01-16 13:25:00,41.0,40.0,29.84,SSE,155,0.0,5.0,95,0.00,,,0.45,weatherlink.com 1.10,2013-01-16 18:25:00,
2013-01-16 13:40:00,41.3,40.0,29.88,SE,131,0.0,4.0,94,0.00,,,0.45,weatherlink.com 1.10,2013-01-16 18:40:00,
2013-01-16 13:55:00,41.5,40.0,29.86,SW,220,2.0,2.0,93,0.00,,,0.45,weatherlink.com 1.10,2013-01-16 18:55:00,
2013-01-16 14:10:00,41.8,40.0,29.87,WSW,244,1.0,3.0,93,0.00,,,0.45,weatherlink.com 1.10,2013-01-16 19:10:00,
2013-01-16 14:25:00,41.8,40.0,29.90,WNW,299,2.0,2.0,93,0.00,,,0.45,weatherlink.com 1.10,2013-01-16 19:25:00,
2013-01-16 14:40:00,41.9,40.0,29.90,ENE,58,0.0,2.0,93,0.00,,,0.45,weatherlink.com 1.10,2013-01-16 19:40:00,
2013-01-16 14:55:00,41.8,40.0,29.86,SSW,207,0.0,3.0,93,0.00,,,0.45,weatherlink.com 1.10,2013-01-16 19:55:00,
2013-01-16 15:10:00,41.8,40.0,29.93,North,358,5.0,7.0,93,0.00,,,0.45,weatherlink.com 1.10,2013-01-16 20:10:00,
2013-01-16 15:25:00,41.7,40.0,29.93,ESE,107,1.0,2.0,93,0.00,,,0.45,weatherlink.com 1.10,2013-01-16 20:25:00,
2013-01-16 15:40:00,41.6,40.0,29.92,NNE,16,1.0,7.0,93,0.00,,,0.45,weatherlink.com 1.10,2013-01-16 20:40:00,
2013-01-16 15:55:00,41.3,40.0,29.93,NNW,330,1.0,2.0,94,0.00,,,0.45,weatherlink.com 1.10,2013-01-16 20:55:00,
2013-01-16 16:11:00,41.3,40.0,29.95,NW,323,0.0,5.0,93,0.01,,,0.46,weatherlink.com 1.10,2013-01-16 21:11:00,
2013-01-16 16:26:00,41.1,40.0,29.95,WSW,257,0.0,2.0,94,0.01,,,0.46,weatherlink.com 1.10,2013-01-16 21:26:00,
2013-01-16 16:41:00,41.0,39.0,29.95,WNW,287,0.0,1.0,94,0.02,,,0.47,weatherlink.com 1.10,2013-01-16 21:41:00,
2013-01-16 16:56:00,40.8,39.0,29.95,East,83,0.0,1.0,94,0.02,,,0.47,weatherlink.com 1.10,2013-01-16 21:56:00,
2013-01-16 17:11:00,40.8,39.0,29.92,WSW,239,0.0,2.0,94,0.01,,,0.47,weatherlink.com 1.10,2013-01-16 22:11:00,
2013-01-16 17:26:00,40.8,40.0,29.95,WSW,257,0.0,1.0,95,0.01,,,0.47,weatherlink.com 1.10,2013-01-16 22:26:00,
2013-01-16 17:41:00,40.8,40.0,29.96,WSW,255,0.0,1.0,95,0.00,,,0.47,weatherlink.com 1.10,2013-01-16 22:41:00,
2013-01-16 17:56:00,40.9,40.0,29.95,East,88,0.0,0.0,95,0.01,,,0.48,weatherlink.com 1.10,2013-01-16 22:56:00,
2013-01-16 18:11:00,40.9,40.0,29.97,West,278,0.0,1.0,95,0.01,,,0.48,weatherlink.com 1.10,2013-01-16 23:11:00,
2013-01-16 18:26:00,40.8,40.0,29.96,East,91,0.0,0.0,95,0.01,,,0.48,weatherlink.com 1.10,2013-01-16 23:26:00,
2013-01-16 18:41:00,40.8,40.0,29.97,East,91,0.0,0.0,95,0.01,,,0.48,weatherlink.com 1.10,2013-01-16 23:41:00,
2013-01-16 18:56:00,41.0,40.0,29.97,East,91,0.0,1.0,95,0.01,,,0.49,weatherlink.com 1.10,2013-01-16 23:56:00,
2013-01-16 19:11:00,41.1,40.0,29.96,WNW,287,0.0,1.0,95,0.01,,,0.49,weatherlink.com 1.10,2013-01-17 00:11:00,
2013-01-16 19:26:00,41.1,40.0,29.96,SW,229,0.0,1.0,95,0.01,,,0.49,weatherlink.com 1.10,2013-01-17 00:26:00,
2013-01-16 19:41:00,41.2,40.0,29.98,West,278,0.0,1.0,96,0.01,,,0.49,weatherlink.com 1.10,2013-01-17 00:41:00,
2013-01-16 19:56:00,41.1,40.0,29.97,WSW,251,0.0,0.0,96,0.00,,,0.49,weatherlink.com 1.10,2013-01-17 00:56:00,
2013-01-16 20:11:00,41.2,40.0,29.98,West,259,0.0,2.0,96,0.00,,,0.49,weatherlink.com 1.10,2013-01-17 01:11:00,
2013-01-16 20:26:00,41.3,40.0,29.97,SW,232,0.0,1.0,96,0.00,,,0.49,weatherlink.com 1.10,2013-01-17 01:26:00,
2013-01-16 20:41:00,41.4,40.0,29.97,SW,232,0.0,0.0,96,0.00,,,0.49,weatherlink.com 1.10,2013-01-17 01:41:00,
2013-01-16 20:56:00,41.5,41.0,29.97,West,267,0.0,0.0,96,0.00,,,0.49,weatherlink.com 1.10,2013-01-17 01:56:00,
2013-01-16 21:11:00,41.5,41.0,29.97,WSW,252,0.0,0.0,96,0.00,,,0.49,weatherlink.com 1.10,2013-01-17 02:11:00,
2013-01-16 21:26:00,41.5,41.0,29.97,WSW,246,0.0,2.0,96,0.00,,,0.49,weatherlink.com 1.10,2013-01-17 02:26:00,
2013-01-16 21:41:00,41.6,41.0,29.96,SW,228,0.0,2.0,96,0.00,,,0.49,weatherlink.com 1.10,2013-01-17 02:41:00,
2013-01-16 21:56:00,41.6,40.0,29.97,WSW,240,0.0,1.0,95,0.00,,,0.49,weatherlink.com 1.10,2013-01-17 02:56:00,
2013-01-16 22:11:00,41.7,40.0,29.96,SW,232,0.0,1.0,95,0.00,,,0.49,weatherlink.com 1.10,2013-01-17 03:11:00,
2013-01-16 22:26:00,41.8,41.0,29.96,WSW,255,0.0,1.0,95,0.01,,,0.50,weatherlink.com 1.10,2013-01-17 03:26:00,
2013-01-16 22:41:00,41.9,41.0,29.97,WSW,249,0.0,0.0,95,0.01,,,0.50,weatherlink.com 1.10,2013-01-17 03:41:00,
2013-01-16 22:56:00,41.9,41.0,29.96,ESE,104,0.0,0.0,95,0.01,,,0.50,weatherlink.com 1.10,2013-01-17 03:56:00,
2013-01-16 23:11:00,41.9,41.0,29.98,ESE,106,0.0,0.0,96,0.01,,,0.50,weatherlink.com 1.10,2013-01-17 04:11:00,
2013-01-16 23:26:00,41.9,41.0,29.97,ESE,106,0.0,0.0,96,0.00,,,0.50,weatherlink.com 1.10,2013-01-17 04:26:00,
2013-01-16 23:41:00,41.9,41.0,29.97,ESE,105,0.0,0.0,96,0.00,,,0.50,weatherlink.com 1.10,2013-01-17 04:41:00,
2013-01-16 23:56:00,41.9,41.0,29.96,ESE,104,0.0,0.0,96,0.01,,,0.51,weatherlink.com 1.10,2013-01-17 04:56:00,